Regional Weather Roundup
Issued by NWS

Home | Current Version | Previous Version | Graphics & Text | Print | Product List | Glossary Off
Versions: 1 2 3 4 5 6 7 8 9 10 11 12 13 14 15 16 17 18 19 20 21 22 23 24 25 26 27 28 29 30 31 32 33 34 35 36 37 38 39 40 41 42 43 44 45 46 47 48 49 50

000
ASUS43 KFSD 281402
RWRSD

WEATHER ROUNDUP FOR SOUTH DAKOTA
NATIONAL WEATHER SERVICE SIOUX FALLS SD
800 AM CST FRI NOV 28 2014

NOTE: "FAIR" INDICATES FEW OR NO CLOUDS BELOW 12,000 FEET WITH NO
SIGNIFICANT WEATHER AND/OR OBSTRUCTIONS TO VISIBILITY.


SDZ001>005-009-010-012>017-281500-
NORTHWEST AND NORTH CENTRAL SOUTH DAKOTA

CITY           SKY/WX    TMP DP  RH WIND       PRES   REMARKS
BUFFALO          N/A     39  29  67 W7        29.59S
FAITH            N/A     32  24  72 S7        29.67R WCI  26
MOBRIDGE       CLOUDY    19  14  81 SE8       29.72F WCI   9
$$

SDZ012>016-024>037-041>051-057-063-072>074-281500-
SOUTHWEST AND SOUTH CENTRAL SOUTH DAKOTA

CITY           SKY/WX    TMP DP  RH WIND       PRES   REMARKS
RAPID CTY ARPT PTCLDY    39  29  67 N14       29.70S
PIERRE         PTCLDY    16  13  88 NE6       29.73F WCI   7
CUSTER         MOCLDY    43  23  45 W3        29.77R
ELLSWORTH AFB  PTCLDY    36  27  70 W7        29.70S
PHILIP         PTCLDY    24  21  88 CALM      29.70R
PINE RIDGE     MOCLDY    41  27  57 W7        29.74F
WINNER         FAIR      43  28  55 S6        29.70F
$$

SDZ004>011-016>023-039-040-281500-
NORTHEAST SOUTH DAKOTA

CITY           SKY/WX    TMP DP  RH WIND       PRES   REMARKS
ABERDEEN       CLOUDY    16  10  77 NE9       29.83F WCI   4
WATERTOWN      CLOUDY    15  11  83 E7        29.80S WCI   5
SISSETON         N/A      8   4  83 S8        29.90F WCI  -4
$$

SDZ017-020-022-023-036>040-048>070-281500-
SOUTHEAST SOUTH DAKOTA

CITY           SKY/WX    TMP DP  RH WIND       PRES   REMARKS
SIOUX FALLS    CLOUDY    19  16  88 E3        29.81F
HURON          CLOUDY    22  17  81 CALM      29.80S
MITCHELL       MOCLDY    21  18  88 E3        29.80S
YANKTON        PTCLDY    21  18  86 SE7       29.81F WCI  13
$$

ABBREVIATIONS USED IN REMARKS
   TC - TEMPERATURE IN CELSIUS
  WCI - WIND CHILL INDEX
   HX - HEAT INDEX
  VSB - VISIBILITY



USA.gov is the U.S. government's official web portal to all federal, state and local government web resources and services.